Location: Passau
(48.5830°N, 13.4830°E)
Time: 06:43:30
(UTC+02:00)

Altair - Visible Passes

Search period start: 26 July 2021 00:00
Search period end: 05 August 2021 00:00
Orbit: 1501 x 1682 km, 47.2° (Epoch: 25 July)

Date Brightness Start Highest point End Pass type
(mag) Time Alt. Az. Time Alt. Az. Time Alt. Az.
26 Jul 8.9 02:28:49 15° SSE 02:32:27 19° SE 02:38:12 10° E visible
26 Jul 7.9 04:26:49 11° SW 04:35:28 51° SSE 04:44:11 10° ENE visible
27 Jul 8.9 02:04:52 15° SSE 02:07:27 17° SE 02:12:43 10° E visible
27 Jul 7.9 04:02:52 15° SW 04:10:22 48° SSE 04:19:01 10° ENE visible
28 Jul 8.9 01:40:52 14° SE 01:42:27 15° SE 01:47:07 10° E visible
28 Jul 7.9 03:38:53 19° SSW 03:45:17 46° SE 03:53:50 10° ENE visible
29 Jul 9.0 01:16:51 13° SE 01:17:27 13° SE 01:21:24 10° E visible
29 Jul 7.9 03:14:51 23° SSW 03:20:12 43° SE 03:28:39 10° ENE visible
30 Jul 9.1 00:52:47 12° ESE 00:52:47 12° ESE 00:55:25 10° ESE visible
30 Jul 8.0 02:50:47 27° S 02:55:07 40° SE 03:03:27 10° ENE visible
30 Jul 7.5 04:49:44 10° WSW 04:59:01 75° SSE 05:08:10 10° E visible
31 Jul 8.0 02:26:40 29° S 02:30:03 38° SE 02:38:16 10° ENE visible
31 Jul 7.5 04:24:40 10° WSW 04:33:52 73° SSE 04:43:00 10° E visible
01 Aug 8.0 02:02:32 31° SSE 02:04:59 36° SE 02:13:04 10° ENE visible
01 Aug 7.5 04:00:31 14° WSW 04:08:44 71° SSE 04:17:51 10° E visible
02 Aug 8.1 01:38:20 31° SSE 01:39:55 33° SE 01:47:50 10° E visible
02 Aug 7.5 03:36:20 18° WSW 03:43:35 69° SSE 03:52:41 10° E visible
03 Aug 8.1 01:14:07 31° SE 01:14:52 31° SE 01:22:36 10° E visible
03 Aug 7.4 03:12:05 23° SW 03:18:27 67° SSE 03:27:32 10° E visible
04 Aug 8.2 00:49:50 29° SE 00:49:50 29° SE 00:57:21 10° E visible
04 Aug 7.4 02:47:48 27° SW 02:53:19 64° SSE 03:02:23 10° ENE visible
04 Aug 7.5 04:48:25 10° W 04:57:47 84° S 05:06:58 10° E visible
